Back to catalog

COSMOS 1607 FUEL CORE

AliveLEO
NORAD 15503·DEBRIS·🇷🇺 Russia

Launched Oct 31, 1984 from Baikonur Cosmodrome

Loading…

Next Passes (next 24 hours)

TLE

FreshSource: Space-Track

Epoch: Sep 14, 2026, 11:28 UTC

1 15503U 84112C   26257.47844949 -.00000077  00000-0  10704-4 0  9992
2 15503  64.9933 286.4178 0042516 291.0269  68.6248 13.87550303108449

Track COSMOS 1607 FUEL CORE in real time with AllMySat

Download on the App Store